TimeEST,TemperatureF,Dew PointF,Humidity,Sea Level PressureIn,VisibilityMPH,Wind Direction,Wind SpeedMPH,Gust SpeedMPH,PrecipitationIn,Events,Conditions,WindDirDegrees,DateUTC
12:53 AM,19.9,15.1,81,29.85,5.0,WNW,5.8,-,0.00,Snow,Light Snow,290,2013-03-03 05:53:00
1:53 AM,19.9,16.0,85,29.85,6.0,WNW,6.9,-,0.00,Snow,Light Snow,300,2013-03-03 06:53:00
2:53 AM,19.9,16.0,85,29.84,8.0,West,8.1,-,0.00,,Overcast,280,2013-03-03 07:53:00
3:53 AM,19.0,16.0,88,29.83,10.0,West,6.9,-,0.00,,Overcast,280,2013-03-03 08:53:00
4:53 AM,19.0,15.1,85,29.83,9.0,West,6.9,-,0.00,Snow,Light Snow,280,2013-03-03 09:53:00
5:53 AM,19.0,15.1,85,29.85,4.0,West,8.1,-,0.00,Snow,Light Snow,280,2013-03-03 10:53:00
6:32 AM,19.0,15.1,85,29.83,2.5,West,9.2,-,0.00,Snow,Light Snow,280,2013-03-03 11:32:00
7:13 AM,18.0,15.1,88,29.83,4.0,WNW,6.9,-,0.00,Snow,Light Snow,290,2013-03-03 12:13:00
7:37 AM,19.0,15.1,85,29.83,1.8,WNW,8.1,-,0.00,Snow,Light Snow,290,2013-03-03 12:37:00
7:53 AM,19.0,15.1,85,29.85,2.5,West,6.9,-,0.00,Snow,Light Snow,280,2013-03-03 12:53:00
8:29 AM,19.0,15.1,85,29.84,2.5,WNW,5.8,-,0.00,Snow,Light Snow,290,2013-03-03 13:29:00
8:53 AM,19.0,15.1,85,29.85,2.5,West,6.9,-,0.00,Snow,Light Snow,280,2013-03-03 13:53:00
9:00 AM,19.0,15.1,85,29.83,1.5,West,6.9,-,0.00,Snow,Light Snow,270,2013-03-03 14:00:00
9:42 AM,19.9,16.0,85,29.83,1.8,West,8.1,-,0.00,Snow,Light Snow,270,2013-03-03 14:42:00
9:50 AM,19.4,15.8,86,29.83,2.5,West,8.1,-,0.00,Snow,Light Snow,280,2013-03-03 14:50:00
9:53 AM,19.9,16.0,85,29.85,3.0,West,8.1,-,0.00,Snow,Light Snow,280,2013-03-03 14:53:00
10:22 AM,21.0,16.0,81,29.82,7.0,WNW,10.4,-,0.00,Snow,Light Snow,290,2013-03-03 15:22:00
10:53 AM,21.9,15.1,75,29.83,7.0,West,11.5,-,0.00,,Overcast,280,2013-03-03 15:53:00
11:53 AM,24.1,17.1,75,29.83,8.0,West,15.0,-,0.00,,Overcast,280,2013-03-03 16:53:00
12:53 PM,25.0,17.1,72,29.81,10.0,West,13.8,-,N/A,,Overcast,280,2013-03-03 17:53:00
1:53 PM,25.0,17.1,72,29.81,10.0,WNW,12.7,-,N/A,,Overcast,290,2013-03-03 18:53:00
2:53 PM,25.0,16.0,69,29.81,10.0,WNW,15.0,-,N/A,,Overcast,290,2013-03-03 19:53:00
3:53 PM,24.1,16.0,71,29.82,10.0,WNW,16.1,-,N/A,,Overcast,300,2013-03-03 20:53:00
4:53 PM,23.0,16.0,74,29.83,10.0,WNW,16.1,-,N/A,,Overcast,290,2013-03-03 21:53:00
5:53 PM,23.0,16.0,74,29.84,10.0,WNW,12.7,-,N/A,,Overcast,300,2013-03-03 22:53:00
6:53 PM,23.0,17.1,78,29.85,10.0,WNW,9.2,-,N/A,,Overcast,300,2013-03-03 23:53:00
7:53 PM,23.0,18.0,81,29.85,10.0,West,10.4,-,N/A,,Overcast,280,2013-03-04 00:53:00
8:53 PM,23.0,19.0,85,29.86,10.0,West,10.4,-,N/A,,Overcast,270,2013-03-04 01:53:00
9:53 PM,21.9,18.0,85,29.86,10.0,West,9.2,-,N/A,,Overcast,270,2013-03-04 02:53:00
10:53 PM,21.9,18.0,85,29.85,10.0,West,10.4,-,N/A,,Overcast,280,2013-03-04 03:53:00
11:51 PM,21.2,19.4,93,29.83,10.0,West,10.4,-,N/A,,Overcast,280,2013-03-04 04:51:00
11:53 PM,21.9,19.0,89,29.84,10.0,West,9.2,-,N/A,,Overcast,280,2013-03-04 04:53:00